sat.trackr.live / text

‹ back to catalog

STARLINK-35962

NORAD 66518 · 2025-265C

PAYLOAD ACTIVE UNKNOWN

§ Identity

Operator
Country
US
Launch date
2025-11-19
Launch site
AFETR
Launch vehicle
Mass (kg)
RCS (m²)

Purposes: comms

External: N2YO · Heavens-Above · Gunter

§ Orbital elements

Epoch: 2026-05-25T05:10:26.328000Z

Period
94.27 min
Inclination
43.0010°
Eccentricity
0.0001177
Mean motion
15.27587564 rev/d
Perigee alt
482.2 km
Apogee alt
483.8 km
Semi-major
6,861.2 km
B*
5.2185e-4
RAAN
206.0575°
Arg perigee
274.8297°
Mean anomaly
85.2420°
Rev number
2,881

§ Raw data

STARLINK-359621 66518U 25265C   26145.21558250  .00014129  00000+0  52185-3 0  99922 66518  43.0010 206.0575 0001177 274.8297  85.2420 15.27587564 28816

JSON: /api/v1/satellites/66518 · /tle

For live sub-satellite position, see the globe view (requires WebGL).

§ Visibility from observer

Set your observer location to see the next 7 days of passes ≥ 10°. The values pass through the URL so the page stays shareable.

No JS? Fill the form by hand. The geolocation button needs JavaScript.